Location: Firnhaberau
(48.4049°N, 10.8963°E)
Time: 07:10:59
(UTC+00:00)

Cosmos 1892 - Pass Details

Date: 07 June 2020
Orbit: 504 x 524 km, 82.5° (Epoch: 14 July)

Event Time Altitude Azimuth Distance (km) Brightness Sun altitude
Exits shadow 01:22:09 16° 171° (S) 1,399 4.4 -13.4°
Maximum altitude 01:25:02 57° 96° (E) 609 3.1 -13.1°
Drops below altitude 10° 01:28:46 10° 17° (NNE) 1,736 6.7 -12.8°
Sets 01:30:55 0° 14° (NNE) 2,624 7.8 -12.6°
